Time,TemperatureF,DewpointF,PressureIn,WindDirection,WindDirectionDegrees,WindSpeedMPH,WindSpeedGustMPH,Humidity,HourlyPrecipIn,Conditions,Clouds,dailyrainin,SolarRadiationWatts/m^2,SoftwareType,DateUTC
2013-01-16 00:08:00,5.6,-1.0,30.71,North,5,0.0,-999.0,75,-99.99,,,0.00,0,weatherlink.com 1.10,2013-01-16 07:08:00,
2013-01-16 00:23:00,4.8,-1.0,30.71,North,5,0.0,-999.0,76,-99.99,,,0.00,0,weatherlink.com 1.10,2013-01-16 07:23:00,
2013-01-16 00:38:00,4.5,-1.0,30.71,North,5,0.0,-999.0,77,-99.99,,,0.00,0,weatherlink.com 1.10,2013-01-16 07:38:00,
2013-01-16 00:53:00,4.3,-2.0,30.70,North,5,1.0,-999.0,76,-99.99,,,0.00,0,weatherlink.com 1.10,2013-01-16 07:53:00,
2013-01-16 01:08:00,3.1,-3.0,30.69,North,5,2.0,-999.0,77,-99.99,,,0.00,0,weatherlink.com 1.10,2013-01-16 08:08:00,
2013-01-16 01:23:00,2.7,-2.0,30.69,NE,53,0.0,-999.0,80,-99.99,,,0.00,0,weatherlink.com 1.10,2013-01-16 08:23:00,
2013-01-16 01:38:00,2.7,-4.0,30.71,NNE,31,3.0,-999.0,75,-99.99,,,0.00,0,weatherlink.com 1.10,2013-01-16 08:38:00,
2013-01-16 01:53:00,1.4,-4.0,30.71,NE,34,5.0,-999.0,79,-99.99,,,0.00,0,weatherlink.com 1.10,2013-01-16 08:53:00,
2013-01-16 02:08:00,1.2,-4.0,30.71,NE,34,5.0,-999.0,80,-99.99,,,0.00,0,weatherlink.com 1.10,2013-01-16 09:08:00,
2013-01-16 02:23:00,0.4,-4.0,30.72,NE,42,5.0,-999.0,80,-99.99,,,0.00,0,weatherlink.com 1.10,2013-01-16 09:23:00,
2013-01-16 02:38:00,0.9,-4.0,30.72,NNE,28,2.0,-999.0,81,-99.99,,,0.00,0,weatherlink.com 1.10,2013-01-16 09:38:00,
2013-01-16 02:53:00,1.4,-3.0,30.71,NE,36,0.0,-999.0,82,-99.99,,,0.00,0,weatherlink.com 1.10,2013-01-16 09:53:00,
2013-01-16 03:09:00,3.1,-1.0,30.71,NE,36,0.0,-999.0,82,-99.99,,,0.00,0,weatherlink.com 1.10,2013-01-16 10:09:00,
2013-01-16 03:24:00,3.1,-2.0,30.71,NW,319,3.0,-999.0,80,-99.99,,,0.00,0,weatherlink.com 1.10,2013-01-16 10:24:00,
2013-01-16 03:39:00,1.5,-4.0,30.71,WNW,287,2.0,-999.0,78,-99.99,,,0.00,0,weatherlink.com 1.10,2013-01-16 10:39:00,
2013-01-16 03:54:00,0.2,-5.0,30.72,NNE,12,5.0,-999.0,78,-99.99,,,0.00,0,weatherlink.com 1.10,2013-01-16 10:54:00,
2013-01-16 04:13:00,-1.5,-6.0,30.71,NNE,27,3.0,-999.0,80,-99.99,,,0.00,0,weatherlink.com 1.10,2013-01-16 11:13:00,
2013-01-16 04:24:00,-1.6,-6.0,30.70,NE,35,2.0,-999.0,81,-99.99,,,0.00,0,weatherlink.com 1.10,2013-01-16 11:24:00,
2013-01-16 04:39:00,-1.8,-6.0,30.71,NE,40,3.0,-999.0,82,-99.99,,,0.00,0,weatherlink.com 1.10,2013-01-16 11:39:00,
2013-01-16 04:54:00,-1.9,-6.0,30.71,NE,36,4.0,-999.0,82,-99.99,,,0.00,0,weatherlink.com 1.10,2013-01-16 11:54:00,
2013-01-16 05:09:00,-1.5,-6.0,30.70,NE,40,5.0,-999.0,82,-99.99,,,0.00,0,weatherlink.com 1.10,2013-01-16 12:09:00,
2013-01-16 05:24:00,-0.8,-5.0,30.70,NE,42,4.0,-999.0,83,-99.99,,,0.00,0,weatherlink.com 1.10,2013-01-16 12:24:00,
2013-01-16 05:39:00,0.4,-4.0,30.70,NE,42,2.0,-999.0,83,-99.99,,,0.00,0,weatherlink.com 1.10,2013-01-16 12:39:00,
2013-01-16 05:54:00,1.1,-3.0,30.70,NE,42,0.0,-999.0,82,-99.99,,,0.00,0,weatherlink.com 1.10,2013-01-16 12:54:00,
2013-01-16 06:09:00,2.4,-2.0,30.71,NE,42,2.0,-999.0,83,-99.99,,,0.00,0,weatherlink.com 1.10,2013-01-16 13:09:00,
2013-01-16 06:24:00,2.9,-2.0,30.72,North,360,4.0,-999.0,80,-99.99,,,0.00,0,weatherlink.com 1.10,2013-01-16 13:24:00,
2013-01-16 06:40:00,0.4,-5.0,30.72,NNE,24,2.0,-999.0,79,-99.99,,,0.00,0,weatherlink.com 1.10,2013-01-16 13:40:00,
2013-01-16 06:55:00,-0.3,-5.0,30.73,NE,37,4.0,-999.0,81,-99.99,,,0.00,0,weatherlink.com 1.10,2013-01-16 13:55:00,
2013-01-16 07:10:00,0.6,-4.0,30.73,NE,43,2.0,-999.0,82,-99.99,,,0.00,0,weatherlink.com 1.10,2013-01-16 14:10:00,
2013-01-16 07:25:00,0.8,-4.0,30.73,NE,43,2.0,-999.0,81,-99.99,,,0.00,0,weatherlink.com 1.10,2013-01-16 14:25:00,
2013-01-16 07:40:00,1.3,-3.0,30.74,NE,43,2.0,-999.0,81,-99.99,,,0.00,0,weatherlink.com 1.10,2013-01-16 14:40:00,
2013-01-16 07:55:00,1.2,-4.0,30.75,NE,36,3.0,-999.0,80,-99.99,,,0.00,7,weatherlink.com 1.10,2013-01-16 14:55:00,
2013-01-16 08:10:00,1.3,-4.0,30.76,NNE,32,3.0,-999.0,80,-99.99,,,0.00,21,weatherlink.com 1.10,2013-01-16 15:10:00,
2013-01-16 08:25:00,0.6,-4.0,30.76,NNE,32,3.0,-999.0,80,-99.99,,,0.00,40,weatherlink.com 1.10,2013-01-16 15:25:00,
2013-01-16 08:40:00,1.8,-3.0,30.77,NE,38,3.0,-999.0,81,-99.99,,,0.00,128,weatherlink.com 1.10,2013-01-16 15:40:00,
2013-01-16 09:10:00,5.6,0.0,30.78,NE,34,5.0,-999.0,76,-99.99,,,0.00,220,weatherlink.com 1.10,2013-01-16 16:10:00,
2013-01-16 09:25:00,6.8,1.0,30.78,NNE,27,3.0,-999.0,75,-99.99,,,0.00,258,weatherlink.com 1.10,2013-01-16 16:25:00,
2013-01-16 09:40:00,7.9,1.0,30.79,NNE,31,4.0,-999.0,72,-99.99,,,0.00,274,weatherlink.com 1.10,2013-01-16 16:40:00,
2013-01-16 09:56:00,10.9,3.0,30.79,NNE,31,0.0,-999.0,70,-99.99,,,0.00,339,weatherlink.com 1.10,2013-01-16 16:56:00,
2013-01-16 10:11:00,10.7,2.0,30.78,NNE,31,0.0,-999.0,68,-99.99,,,0.00,371,weatherlink.com 1.10,2013-01-16 17:11:00,
2013-01-16 10:26:00,13.3,5.0,30.78,NNE,31,0.0,-999.0,69,-99.99,,,0.00,397,weatherlink.com 1.10,2013-01-16 17:26:00,
2013-01-16 10:41:00,11.6,2.0,30.79,NNE,31,0.0,-999.0,65,-99.99,,,0.00,415,weatherlink.com 1.10,2013-01-16 17:41:00,
2013-01-16 10:56:00,11.3,3.0,30.79,NNE,31,0.0,-999.0,69,-99.99,,,0.00,394,weatherlink.com 1.10,2013-01-16 17:56:00,
2013-01-16 11:11:00,17.4,7.0,30.78,NNE,31,0.0,-999.0,64,-99.99,,,0.00,469,weatherlink.com 1.10,2013-01-16 18:11:00,
2013-01-16 11:26:00,18.6,8.0,30.77,NNE,17,0.0,-999.0,63,-99.99,,,0.00,492,weatherlink.com 1.10,2013-01-16 18:26:00,
2013-01-16 11:41:00,20.0,8.0,30.77,NNE,17,0.0,-999.0,59,-99.99,,,0.00,490,weatherlink.com 1.10,2013-01-16 18:41:00,
2013-01-16 11:56:00,15.6,5.0,30.76,NNE,17,0.0,-999.0,62,-99.99,,,0.00,499,weatherlink.com 1.10,2013-01-16 18:56:00,
2013-01-16 12:11:00,14.3,5.0,30.76,WNW,283,0.0,-999.0,67,-99.99,,,0.00,520,weatherlink.com 1.10,2013-01-16 19:11:00,
2013-01-16 12:26:00,17.4,8.0,30.75,West,281,0.0,-999.0,67,-99.99,,,0.00,515,weatherlink.com 1.10,2013-01-16 19:26:00,
2013-01-16 12:41:00,18.3,9.0,30.75,West,278,0.0,-999.0,66,-99.99,,,0.00,497,weatherlink.com 1.10,2013-01-16 19:41:00,
2013-01-16 12:56:00,20.0,9.0,30.74,West,278,0.0,-999.0,62,-99.99,,,0.00,501,weatherlink.com 1.10,2013-01-16 19:56:00,
2013-01-16 13:11:00,22.0,11.0,30.74,North,360,0.0,-999.0,63,-99.99,,,0.00,475,weatherlink.com 1.10,2013-01-16 20:11:00,
2013-01-16 13:27:00,23.3,11.0,30.73,North,360,0.0,-999.0,60,-99.99,,,0.00,461,weatherlink.com 1.10,2013-01-16 20:27:00,
2013-01-16 13:42:00,21.8,10.0,30.73,North,360,0.0,-999.0,60,-99.99,,,0.00,469,weatherlink.com 1.10,2013-01-16 20:42:00,
2013-01-16 13:57:00,21.8,10.0,30.73,NNW,344,0.0,-999.0,61,-99.99,,,0.00,355,weatherlink.com 1.10,2013-01-16 20:57:00,
2013-01-16 14:12:00,23.0,11.0,30.73,NNW,344,0.0,-999.0,61,-99.99,,,0.00,257,weatherlink.com 1.10,2013-01-16 21:12:00,
2013-01-16 14:27:00,23.3,10.0,30.73,NNW,344,0.0,-999.0,58,-99.99,,,0.00,120,weatherlink.com 1.10,2013-01-16 21:27:00,
2013-01-16 14:42:00,21.0,9.0,30.73,NNW,344,0.0,-999.0,59,-99.99,,,0.00,373,weatherlink.com 1.10,2013-01-16 21:42:00,
2013-01-16 14:57:00,21.0,9.0,30.72,NNW,344,0.0,-999.0,60,-99.99,,,0.00,339,weatherlink.com 1.10,2013-01-16 21:57:00,
2013-01-16 15:12:00,20.8,10.0,30.71,NNW,344,0.0,-999.0,62,-99.99,,,0.01,304,weatherlink.com 1.10,2013-01-16 22:12:00,
2013-01-16 15:27:00,19.9,9.0,30.72,NNW,344,0.0,-999.0,64,-99.99,,,0.01,258,weatherlink.com 1.10,2013-01-16 22:27:00,
2013-01-16 15:42:00,21.1,10.0,30.72,NNW,344,0.0,-999.0,63,-99.99,,,0.01,206,weatherlink.com 1.10,2013-01-16 22:42:00,
2013-01-16 15:57:00,23.8,10.0,30.72,NNW,345,0.0,-999.0,57,-99.99,,,0.01,153,weatherlink.com 1.10,2013-01-16 22:57:00,
2013-01-16 16:12:00,21.3,10.0,30.73,NNE,23,0.0,-999.0,61,-99.99,,,0.01,105,weatherlink.com 1.10,2013-01-16 23:12:00,
2013-01-16 16:27:00,20.0,10.0,30.73,NNE,23,0.0,-999.0,64,-99.99,,,0.01,62,weatherlink.com 1.10,2013-01-16 23:27:00,
2013-01-16 16:43:00,19.4,9.0,30.73,NNE,23,0.0,-999.0,65,-99.99,,,0.01,26,weatherlink.com 1.10,2013-01-16 23:43:00,
2013-01-16 16:58:00,18.5,9.0,30.73,NNE,23,0.0,-999.0,67,-99.99,,,0.01,7,weatherlink.com 1.10,2013-01-16 23:58:00,
2013-01-16 17:13:00,17.6,9.0,30.73,NNE,23,0.0,-999.0,68,-99.99,,,0.01,0,weatherlink.com 1.10,2013-01-17 00:13:00,
2013-01-16 17:28:00,17.3,9.0,30.74,NNE,23,0.0,-999.0,70,-99.99,,,0.01,0,weatherlink.com 1.10,2013-01-17 00:28:00,
2013-01-16 17:43:00,16.2,8.0,30.75,NNE,23,0.0,-999.0,70,-99.99,,,0.01,0,weatherlink.com 1.10,2013-01-17 00:43:00,
2013-01-16 17:58:00,15.7,8.0,30.75,NNE,23,0.0,-999.0,72,-99.99,,,0.01,0,weatherlink.com 1.10,2013-01-17 00:58:00,
2013-01-16 18:13:00,15.3,8.0,30.75,NNE,23,0.0,-999.0,73,-99.99,,,0.01,0,weatherlink.com 1.10,2013-01-17 01:13:00,
2013-01-16 18:28:00,15.2,8.0,30.75,NNE,23,0.0,-999.0,74,-99.99,,,0.01,0,weatherlink.com 1.10,2013-01-17 01:28:00,
2013-01-16 18:43:00,15.4,8.0,30.75,NNE,24,0.0,-999.0,72,-99.99,,,0.01,0,weatherlink.com 1.10,2013-01-17 01:43:00,
2013-01-16 18:58:00,15.2,7.0,30.75,ESE,109,4.0,-999.0,71,-99.99,,,0.01,0,weatherlink.com 1.10,2013-01-17 01:58:00,
2013-01-16 19:13:00,14.3,7.0,30.76,ESE,109,0.0,-999.0,72,-99.99,,,0.01,0,weatherlink.com 1.10,2013-01-17 02:13:00,
2013-01-16 19:28:00,14.0,7.0,30.76,ESE,109,2.0,-999.0,74,-99.99,,,0.01,0,weatherlink.com 1.10,2013-01-17 02:28:00,
2013-01-16 19:43:00,12.9,6.0,30.77,ESE,109,0.0,-999.0,74,-99.99,,,0.01,0,weatherlink.com 1.10,2013-01-17 02:43:00,
2013-01-16 19:59:00,11.6,5.0,30.77,ESE,109,0.0,-999.0,76,-99.99,,,0.01,0,weatherlink.com 1.10,2013-01-17 02:59:00,
2013-01-16 20:14:00,11.3,6.0,30.78,ESE,109,0.0,-999.0,78,-99.99,,,0.01,0,weatherlink.com 1.10,2013-01-17 03:14:00,
2013-01-16 20:29:00,11.9,7.0,30.78,ESE,109,0.0,-999.0,79,-99.99,,,0.01,0,weatherlink.com 1.10,2013-01-17 03:29:00,
2013-01-16 20:44:00,11.5,6.0,30.78,South,171,0.0,-999.0,78,-99.99,,,0.01,0,weatherlink.com 1.10,2013-01-17 03:44:00,
2013-01-16 20:59:00,11.3,6.0,30.79,South,173,0.0,-999.0,79,-99.99,,,0.01,0,weatherlink.com 1.10,2013-01-17 03:59:00,
2013-01-16 21:14:00,10.1,5.0,30.79,South,171,0.0,-999.0,79,-99.99,,,0.01,0,weatherlink.com 1.10,2013-01-17 04:14:00,
2013-01-16 21:29:00,9.9,5.0,30.79,ESE,117,2.0,-999.0,81,-99.99,,,0.01,0,weatherlink.com 1.10,2013-01-17 04:29:00,
2013-01-16 21:44:00,8.0,3.0,30.79,NE,37,2.0,-999.0,81,-99.99,,,0.01,0,weatherlink.com 1.10,2013-01-17 04:44:00,
2013-01-16 21:59:00,6.0,1.0,30.78,NNE,32,2.0,-999.0,81,-99.99,,,0.01,0,weatherlink.com 1.10,2013-01-17 04:59:00,
2013-01-16 22:14:00,5.9,2.0,30.79,NNE,33,2.0,-999.0,83,-99.99,,,0.01,0,weatherlink.com 1.10,2013-01-17 05:14:00,
2013-01-16 22:29:00,7.4,4.0,30.78,NNE,33,3.0,-999.0,85,-99.99,,,0.01,0,weatherlink.com 1.10,2013-01-17 05:29:00,
2013-01-16 22:44:00,9.0,6.0,30.79,NNE,33,2.0,-999.0,86,-99.99,,,0.01,0,weatherlink.com 1.10,2013-01-17 05:44:00,
2013-01-16 22:59:00,10.1,6.0,30.78,NNE,33,0.0,-999.0,84,-99.99,,,0.01,0,weatherlink.com 1.10,2013-01-17 05:59:00,
2013-01-16 23:14:00,10.3,6.0,30.78,NNE,33,0.0,-999.0,83,-99.99,,,0.01,0,weatherlink.com 1.10,2013-01-17 06:14:00,
2013-01-16 23:30:00,10.2,6.0,30.77,NNE,33,0.0,-999.0,82,-99.99,,,0.01,0,weatherlink.com 1.10,2013-01-17 06:30:00,
2013-01-16 23:45:00,10.6,6.0,30.78,NNE,33,0.0,-999.0,82,-99.99,,,0.01,0,weatherlink.com 1.10,2013-01-17 06:45:00,